FW3706 Weather Reports


Display with metric or nautical units.
time (UTC)temp
F
wind
direction
speed
MPH
gust
MPH
rain 1hr
in
rain 24hr
in
rain mn
in
humidity
%
barometer
mb
20260901205016 93 283 0.0 4.0 0.00 0.01 0.00 39 1016.1
20260901204523 92 288 0.0 5.0 0.00 0.01 0.00 40 1016.2
20260901204006 92 285 1.0 6.0 0.00 0.01 0.00 40 1016.3
20260901203517 92 259 2.0 6.0 0.00 0.02 0.00 41 1016.3
20260901203041 92 219 1.0 6.0 0.00 0.02 0.00 40 1016.4
20260901202519 93 245 1.0 6.0 0.00 0.03 0.00 43 1016.4
20260901202016 92 272 1.0 6.0 0.00 0.04 0.00 41 1016.5
20260901201533 92 265 2.0 6.0 0.00 0.05 0.00 41 1016.5
20260901201019 92 277 1.0 5.0 0.00 0.05 0.00 42 1016.6
20260901200516 91 271 1.0 7.0 0.00 0.05 0.00 45 1016.6
20260901200027 91 270 3.0 7.0 0.00 0.06 0.00 41 1016.7
20260901195508 91 283 3.0 6.0 0.00 0.06 0.00 42 1016.8
20260901195022 91 287 2.0 6.0 0.00 0.08 0.00 43 1016.7
20260901194523 91 236 1.0 8.0 0.00 0.10 0.00 43 1016.8
20260901194007 90 232 3.0 7.0 0.00 0.11 0.00 46 1016.9
20260901193519 90 251 0.0 7.0 0.00 0.11 0.00 43 1017.0
20260901193035 89 222 0.0 6.0 0.00 0.12 0.00 43 1017.1
20260901192503 89 223 1.0 6.0 0.00 0.13 0.00 44 1017.2
20260901192019 90 243 0.0 5.0 0.00 0.14 0.00 44 1017.2
20260901191540 90 268 1.0 8.0 0.00 0.15 0.00 43 1017.3
20260901191007 90 275 0.0 8.0 0.00 0.15 0.00 48 1017.3
20260901190516 90 243 0.0 5.0 0.00 0.16 0.00 45 1017.4
20260901190049 89 182 0.0 5.0 0.00 0.16 0.00 45 1017.4
20260901185508 89 239 1.0 5.0 0.00 0.18 0.00 44 1017.5
20260901185015 89 257 1.0 5.0 0.00 0.18 0.00 48 1017.5
20260901184530 89 192 1.0 4.0 0.00 0.19 0.00 46 1017.5
20260901184021 89 147 0.0 6.0 0.00 0.20 0.00 46 1017.5
20260901183519 89 72 1.0 6.0 0.00 0.20 0.00 46 1017.6
20260901183024 88 90 1.0 5.0 0.00 0.21 0.00 47 1017.6
20260901182507 88 154 1.0 5.0 0.00 0.23 0.00 46 1017.7
20260901182003 88 157 0.0 8.0 0.00 0.26 0.00 46 1017.7
20260901181529 88 170 2.0 8.0 0.00 0.28 0.00 48 1017.7
20260901181003 88 173 0.0 4.0 0.00 0.29 0.00 49 1017.7
20260901180504 88 146 0.0 4.0 0.00 0.34 0.00 46 1017.8
20260901180028 88 135 1.0 4.0 0.00 0.34 0.00 46 1017.9
20260901175512 87 176 1.0 4.0 0.00 0.34 0.00 49 1018.0
20260901175012 87 254 0.0 4.0 0.00 0.35 0.00 50 1018.0
20260901174540 86 255 1.0 4.0 0.00 0.35 0.00 49 1018.0
20260901174005 86 164 0.0 4.0 0.00 0.35 0.00 49 1018.0
20260901173519 86 152 1.0 3.0 0.00 0.38 0.00 50 1018.0
20260901173036 86 151 0.0 4.0 0.00 0.44 0.00 50 1017.9
20260901172520 86 167 1.0 4.0 0.00 0.46 0.00 49 1018.0
20260901172016 85 169 0.0 5.0 0.00 0.49 0.00 53 1018.0
20260901171542 85 167 1.0 4.0 0.00 0.51 0.00 53 1018.0
20260901171014 85 145 0.0 2.0 0.00 0.52 0.00 56 1018.0
20260901170514 84 144 0.0 4.0 0.00 0.52 0.00 55 1018.0
20260901170024 84 140 1.0 5.0 0.00 0.52 0.00 57 1018.0
20260901165520 84 124 0.0 5.0 0.00 0.52 0.00 55 1018.1
20260901165021 84 107 2.0 5.0 0.00 0.52 0.00 57 1018.0
20260901164523 83 145 0.0 3.0 0.00 0.52 0.00 58 1018.0
20260901164017 83 146 1.0 4.0 0.00 0.52 0.00 58 1018.0
20260901163520 83 146 1.0 4.0 0.00 0.52 0.00 59 1018.0
20260901163035 83 149 0.0 3.0 0.00 0.52 0.00 61 1017.9
20260901162505 82 150 0.0 4.0 0.00 0.52 0.00 62 1017.9
20260901162019 82 154 0.0 4.0 0.00 0.52 0.00 63 1018.0
20260901161540 82 155 1.0 4.0 0.00 0.52 0.00 63 1018.0
20260901161019 81 129 1.0 4.0 0.00 0.52 0.00 62 1018.0
20260901160517 81 120 1.0 4.0 0.00 0.52 0.00 64 1018.0
20260901160035 81 113 0.0 4.0 0.00 0.52 0.00 65 1018.0
20260901155507 80 111 0.0 3.0 0.00 0.52 0.00 66 1018.0
20260901155016 80 102 0.0 5.0 0.00 0.52 0.00 66 1018.0
20260901154535 80 102 1.0 5.0 0.00 0.52 0.00 67 1018.0
20260901154004 79 108 3.0 5.0 0.00 0.52 0.00 68 1018.0
20260901153519 79 139 0.0 3.0 0.00 0.52 0.00 68 1018.0
20260901153034 78 139 0.0 3.0 0.00 0.52 0.00 69 1018.1
20260901152515 78 138 0.0 3.0 0.00 0.52 0.00 70 1018.0
20260901152015 78 125 1.0 3.0 0.00 0.52 0.00 70 1018.0
20260901151540 78 119 0.0 4.0 0.00 0.52 0.00 71 1018.0
20260901151020 78 119 1.0 4.0 0.00 0.52 0.00 71 1018.0
20260901150519 77 360 0.0 5.0 0.00 0.52 0.00 72 1018.0
20260901150029 77 108 0.0 5.0 0.00 0.52 0.00 72 1018.0
20260901145519 77 93 0.0 4.0 0.00 0.52 0.00 73 1018.0
20260901145016 77 92 1.0 4.0 0.00 0.52 0.00 73 1018.0
20260901144522 76 97 1.0 5.0 0.00 0.52 0.00 74 1018.0
20260901144016 76 76 2.0 5.0 0.00 0.52 0.00 74 1018.1
20260901143517 76 88 2.0 5.0 0.00 0.52 0.00 75 1018.0
20260901143028 76 93 2.0 4.0 0.00 0.52 0.00 76 1018.0
20260901142519 75 96 1.0 5.0 0.00 0.52 0.00 78 1018.0
20260901142016 74 89 1.0 5.0 0.00 0.52 0.00 79 1017.9
20260901141524 74 91 0.0 4.0 0.00 0.52 0.00 80 1017.8
20260901141022 73 71 0.0 5.0 0.00 0.52 0.00 82 1017.7
20260901140516 73 57 1.0 6.0 0.00 0.52 0.00 84 1017.7
20260901140033 72 18 1.0 6.0 0.00 0.52 0.00 85 1017.6
20260901135515 72 53 1.0 6.0 0.00 0.52 0.00 85 1017.6
20260901135013 71 63 1.0 4.0 0.00 0.52 0.00 86 1017.5
20260901134532 71 62 0.0 4.0 0.00 0.52 0.00 86 1017.5
20260901134014 71 63 0.0 6.0 0.00 0.52 0.00 86 1017.6
20260901133519 71 65 1.0 6.0 0.00 0.52 0.00 86 1017.5
20260901133025 71 62 1.0 3.0 0.00 0.52 0.00 86 1017.5
20260901132517 71 81 0.0 4.0 0.00 0.52 0.00 86 1017.4
20260901132018 71 80 0.0 4.0 0.00 0.52 0.00 86 1017.4
20260901131525 71 71 0.0 0.0 0.00 0.52 0.00 86 1017.4
20260901131018 71 71 0.0 1.0 0.00 0.52 0.00 86 1017.3
20260901130519 71 71 0.0 1.0 0.00 0.52 0.00 85 1017.3
20260901130029 71 71 0.0 1.0 0.00 0.52 0.00 85 1017.2
20260901125515 71 71 0.0 1.0 0.00 0.52 0.00 85 1017.1
20260901125014 71 71 0.0 0.0 0.00 0.54 0.00 84 1017.0
20260901124535 71 71 0.0 1.0 0.00 0.54 0.00 84 1016.8
20260901124019 71 71 0.0 3.0 0.00 0.54 0.00 84 1016.6
20260901123515 71 71 0.0 3.0 0.00 0.54 0.00 84 1016.6
20260901123035 71 69 0.0 5.0 0.00 0.54 0.00 84 1016.7
20260901122508 71 70 0.0 5.0 0.00 0.54 0.00 84 1016.5
20260901122004 71 71 1.0 3.0 0.00 0.54 0.00 84 1016.5
20260901121533 71 71 0.0 3.0 0.00 0.54 0.00 84 1016.5
20260901121008 71 69 0.0 3.0 0.00 0.55 0.00 84 1016.6
20260901120516 71 65 0.0 3.0 0.00 0.57 0.00 84 1016.5
20260901120025 71 61 0.0 4.0 0.00 0.57 0.00 84 1016.5
20260901115507 71 61 0.0 4.0 0.00 0.58 0.00 84 1016.4
20260901115015 71 61 0.0 3.0 0.00 0.58 0.00 84 1016.4
20260901114527 71 62 0.0 2.0 0.00 0.60 0.00 84 1016.4
20260901114004 71 63 0.0 1.0 0.00 0.61 0.00 84 1016.4
20260901113516 71 63 0.0 0.0 0.00 0.64 0.00 84 1016.4
20260901113026 71 63 0.0 2.0 0.00 0.65 0.00 84 1016.5
20260901112507 71 63 0.0 2.0 0.00 0.66 0.00 84 1016.5
20260901112016 71 63 0.0 2.0 0.00 0.67 0.00 83 1016.5
20260901111526 72 63 0.0 3.0 0.00 0.67 0.00 83 1016.5
20260901111011 72 63 0.0 4.0 0.00 0.67 0.00 83 1016.5
20260901110518 72 63 0.0 4.0 0.00 0.67 0.00 83 1016.4
20260901110033 72 63 0.0 3.0 0.00 0.67 0.00 83 1016.5
20260901105505 72 58 0.0 3.0 0.00 0.67 0.00 82 1016.5
20260901105012 72 58 0.0 2.0 0.00 0.67 0.00 82 1016.5
20260901104528 72 57 0.0 0.0 0.00 0.67 0.00 82 1016.4
20260901104008 72 56 0.0 0.0 0.00 0.67 0.00 82 1016.4
20260901103518 72 56 0.0 0.0 0.00 0.67 0.00 82 1016.5
20260901103028 72 55 0.0 1.0 0.00 0.67 0.00 82 1016.4
20260901102509 72 53 0.0 3.0 0.00 0.67 0.00 81 1016.4
20260901102014 72 53 0.0 3.0 0.00 0.67 0.00 81 1016.3
20260901101528 72 53 0.0 2.0 0.00 0.67 0.00 81 1016.3
20260901101010 72 53 0.0 5.0 0.00 0.67 0.00 81 1016.3
20260901100516 72 53 0.0 5.0 0.00 0.67 0.00 81 1016.3
20260901100023 72 53 1.0 5.0 0.00 0.67 0.00 81 1016.2
20260901095503 72 56 0.0 1.0 0.00 0.67 0.00 81 1016.2
20260901095016 72 56 0.0 3.0 0.00 0.67 0.00 81 1016.2
20260901094526 72 56 0.0 4.0 0.00 0.67 0.00 81 1016.2
20260901094006 72 55 0.0 4.0 0.00 0.67 0.00 81 1016.2
20260901093513 72 55 0.0 3.0 0.00 0.67 0.00 81 1016.2
20260901093025 72 54 0.0 3.0 0.00 0.67 0.00 81 1016.2
20260901092506 72 53 0.0 4.0 0.00 0.67 0.00 81 1016.2
20260901092017 72 53 0.0 4.0 0.00 0.67 0.00 81 1016.1
20260901091527 72 53 1.0 4.0 0.00 0.67 0.00 82 1016.2
20260901091006 73 52 0.0 4.0 0.00 0.67 0.00 81 1016.2
20260901090522 73 54 0.0 4.0 0.00 0.67 0.00 81 1016.3
20260901090026 73 54 1.0 4.0 0.00 0.67 0.00 81 1016.3
20260901085503 73 58 1.0 5.0 0.00 0.67 0.00 82 1016.3
20260901085014 73 63 0.0 5.0 0.00 0.67 0.00 82 1016.3
20260901084524 72 65 2.0 4.0 0.00 0.67 0.00 82 1016.2
20260901084005 73 73 1.0 4.0 0.00 0.67 0.00 82 1016.2
20260901083517 73 79 1.0 3.0 0.00 0.67 0.00 82 1016.3
20260901083027 73 80 0.0 4.0 0.00 0.67 0.00 82 1016.4
20260901082506 73 81 0.0 4.0 0.00 0.67 0.00 82 1016.4
20260901082015 73 82 1.0 4.0 0.00 0.67 0.00 82 1016.3
20260901081524 73 84 0.0 3.0 0.00 0.67 0.00 82 1016.3
20260901081006 73 85 0.0 3.0 0.00 0.67 0.00 82 1016.3
20260901080515 73 88 1.0 3.0 0.00 0.67 0.00 82 1016.3
20260901080023 73 89 0.0 2.0 0.00 0.67 0.00 82 1016.2
20260901075504 73 90 0.0 1.0 0.00 0.67 0.00 82 1016.4
20260901075016 73 90 0.0 2.0 0.00 0.67 0.00 81 1016.4
20260901074526 73 90 0.0 2.0 0.00 0.67 0.00 81 1016.5
20260901074009 73 90 0.0 1.0 0.00 0.67 0.00 81 1016.5
20260901073514 74 90 0.0 1.0 0.00 0.67 0.00 80 1016.5
20260901073027 74 90 0.0 0.0 0.00 0.67 0.00 79 1016.5
20260901072505 74 91 0.0 0.0 0.00 0.67 0.00 79 1016.5
20260901072019 74 91 0.0 1.0 0.00 0.67 0.00 78 1016.5
20260901071527 74 91 0.0 1.0 0.00 0.67 0.00 78 1016.4
20260901071005 75 91 0.0 2.0 0.00 0.67 0.00 77 1016.5
20260901070515 75 91 0.0 2.0 0.00 0.67 0.00 76 1016.4
20260901070024 75 91 0.0 2.0 0.00 0.67 0.00 76 1016.5
20260901065514 75 92 0.0 2.0 0.00 0.67 0.67 76 1016.4
20260901065019 75 92 0.0 2.0 0.00 0.67 0.67 76 1016.5
20260901064535 75 92 0.0 2.0 0.00 0.67 0.67 76 1016.5
20260901064019 75 91 0.0 1.0 0.00 0.67 0.67 76 1016.5
20260901063516 75 91 0.0 0.0 0.00 0.67 0.67 76 1016.5
20260901063031 75 91 0.0 0.0 0.00 0.67 0.67 75 1016.6
20260901062519 75 91 0.0 0.0 0.00 0.67 0.67 75 1016.7
20260901062013 75 91 0.0 0.0 0.00 0.67 0.67 75 1016.7
20260901061524 75 91 0.0 0.0 0.00 0.67 0.67 75 1016.8
20260901061018 75 91 0.0 0.0 0.00 0.67 0.67 74 1016.8
20260901060513 75 91 0.0 1.0 0.00 0.67 0.67 75 1016.7
20260901060024 75 91 0.0 2.0 0.00 0.67 0.67 75 1016.6
20260901055516 75 91 0.0 2.0 0.00 0.67 0.67 75 1016.6
20260901055014 76 91 0.0 1.0 0.00 0.67 0.67 75 1016.7
20260901054525 76 91 0.0 1.0 0.00 0.67 0.67 75 1016.7
20260901054021 76 91 0.0 1.0 0.00 0.67 0.67 74 1016.6
20260901053516 76 91 0.0 3.0 0.00 0.67 0.67 73 1016.5
20260901053024 76 91 0.0 3.0 0.00 0.67 0.67 73 1016.4
20260901052518 76 90 0.0 3.0 0.00 0.67 0.67 73 1016.4
20260901052013 76 89 0.0 3.0 0.00 0.67 0.67 72 1016.4
20260901051528 76 88 0.0 4.0 0.00 0.67 0.67 72 1016.4
20260901051014 76 85 1.0 4.0 0.00 0.67 0.67 72 1016.4
20260901050517 76 71 1.0 4.0 0.00 0.67 0.67 72 1016.5
20260901050023 77 67 0.0 6.0 0.00 0.67 0.67 71 1016.6
20260901045522 77 58 2.0 8.0 0.00 0.67 0.67 71 1016.6
20260901045014 76 55 3.0 8.0 0.00 0.67 0.67 72 1016.7
20260901044523 76 44 3.0 6.0 0.00 0.67 0.67 72 1016.8
20260901044019 76 63 2.0 6.0 0.00 0.67 0.67 72 1016.7
20260901043517 76 65 2.0 6.0 0.00 0.67 0.67 72 1016.7
20260901043026 76 63 1.0 6.0 0.00 0.67 0.67 72 1016.7
20260901042520 76 41 1.0 6.0 0.00 0.67 0.67 72 1016.6
20260901042016 76 77 1.0 5.0 0.00 0.67 0.67 72 1016.5
20260901041527 76 85 0.0 6.0 0.00 0.67 0.67 72 1016.4
20260901041017 76 84 0.0 6.0 0.00 0.67 0.67 72 1016.5
20260901040512 76 65 1.0 4.0 0.00 0.67 0.67 72 1016.5
20260901040035 76 84 0.0 4.0 0.00 0.67 0.67 71 1016.5
20260901035517 76 82 0.0 4.0 0.00 0.67 0.67 71 1016.5
20260901035016 76 67 0.0 3.0 0.00 0.67 0.67 71 1016.4
20260901034523 76 63 0.0 2.0 0.00 0.67 0.67 71 1016.3
20260901034018 76 62 0.0 4.0 0.00 0.67 0.67 71 1016.3
20260901033513 76 60 0.0 4.0 0.00 0.67 0.67 71 1016.3
20260901033032 76 32 0.0 3.0 0.00 0.67 0.67 71 1016.3
20260901032506 76 15 0.0 4.0 0.00 0.67 0.67 71 1016.2
20260901032004 76 15 1.0 4.0 0.00 0.67 0.67 71 1016.1
20260901031507 76 350 0.0 2.0 0.00 0.67 0.67 71 1016.0
20260901031003 76 350 0.0 2.0 0.00 0.67 0.67 71 1016.1
20260901030503 77 349 0.0 2.0 0.00 0.67 0.67 71 1016.1
20260901030004 77 349 0.0 2.0 0.00 0.67 0.67 71 1016.1
20260901025507 77 348 0.0 2.0 0.00 0.67 0.67 71 1015.9
20260901025004 77 347 0.0 2.0 0.00 0.67 0.67 71 1015.9
20260901024505 77 347 0.0 2.0 0.00 0.67 0.67 72 1015.7
20260901024006 77 345 0.0 2.0 0.00 0.67 0.67 71 1015.5
20260901023503 77 342 0.0 2.0 0.00 0.67 0.67 71 1015.4
20260901023004 77 340 0.0 2.0 0.00 0.67 0.67 71 1015.4
20260901022505 77 337 0.0 0.0 0.00 0.67 0.67 72 1015.4
20260901022003 77 337 0.0 1.0 0.00 0.67 0.67 72 1015.4
20260901021504 77 337 0.0 3.0 0.00 0.67 0.67 72 1015.2
20260901021002 77 337 0.0 3.0 0.00 0.67 0.67 72 1015.1
20260901020503 77 335 0.0 2.0 0.00 0.67 0.67 73 1015.1
20260901020004 78 332 0.0 0.0 0.00 0.67 0.67 74 1015.1
20260901015503 78 332 0.0 0.0 0.00 0.67 0.67 74 1014.8
20260901015004 78 360 0.0 0.0 0.00 0.67 0.67 74 1015.0
20260901014504 78 360 0.0 0.0 0.00 0.67 0.67 72 1014.9
20260901014004 78 330 0.0 0.0 0.00 0.67 0.67 72 1014.9
20260901013504 78 331 0.0 0.0 0.00 0.67 0.67 71 1014.7
20260901013008 78 331 0.0 0.0 0.00 0.67 0.67 71 1014.6
20260901012509 78 331 0.0 1.0 0.00 0.67 0.67 70 1014.5
20260901012003 79 331 0.0 1.0 0.00 0.67 0.67 69 1014.4
20260901011508 79 360 0.0 1.0 0.00 0.67 0.67 69 1014.4
20260901011004 79 360 0.0 2.0 0.00 0.67 0.67 68 1014.5
20260901010504 79 360 0.0 2.0 0.00 0.67 0.67 68 1014.5
20260901010007 80 360 0.0 0.0 0.00 0.67 0.67 68 1014.5
20260901005503 80 332 0.0 0.0 0.00 0.67 0.67 67 1014.5
20260901005003 80 334 0.0 1.0 0.00 0.67 0.67 67 1014.5
20260901004527 80 360 0.0 1.0 0.00 0.67 0.67 67 1014.4
20260901004002 80 360 0.0 0.0 0.00 0.67 0.67 67 1014.4
20260901003504 80 360 0.0 0.0 0.00 0.67 0.67 65 1014.4
20260901003008 80 80 0.0 3.0 0.00 0.67 0.67 64 1014.6
20260901002504 80 80 0.0 3.0 0.00 0.67 0.67 65 1014.5
20260901002004 80 360 1.0 3.0 0.00 0.67 0.67 64 1014.6
20260901001519 80 77 0.0 3.0 0.00 0.67 0.67 65 1014.6
20260901001003 80 70 0.0 3.0 0.00 0.67 0.67 65 1014.7
20260901000504 81 72 0.0 4.0 0.00 0.67 0.67 64 1014.6
20260901000013 81 69 1.0 4.0 0.00 0.67 0.67 65 1014.7
20260831235504 81 10 0.0 4.0 0.00 0.67 0.67 66 1014.7
20260831235007 81 7 0.0 4.0 0.00 0.67 0.67 66 1014.7
20260831234511 81 6 1.0 5.0 0.00 0.67 0.67 65 1014.8
20260831234004 80 4 2.0 6.0 0.00 0.67 0.67 65 1014.8
20260831233504 80 4 1.0 6.0 0.00 0.67 0.67 67 1014.8
20260831233008 80 4 1.0 8.0 0.00 0.67 0.67 66 1014.7
20260831232503 80 103 3.0 8.0 0.00 0.67 0.67 65 1014.7
20260831232004 80 78 3.0 7.0 0.00 0.67 0.67 65 1014.9
20260831231507 80 100 3.0 6.0 0.00 0.67 0.67 65 1015.0
20260831231004 80 84 3.0 6.0 0.00 0.67 0.67 66 1014.9
20260831230503 80 83 2.0 9.0 0.00 0.67 0.67 67 1015.0
20260831230010 80 68 3.0 9.0 0.00 0.67 0.67 66 1015.0
20260831225504 80 98 4.0 9.0 0.00 0.67 0.67 66 1015.1
20260831225004 80 63 4.0 12.0 0.00 0.67 0.67 68 1015.1
20260831224510 79 42 4.0 12.0 0.00 0.67 0.67 67 1015.1
20260831224006 80 98 5.0 10.0 0.00 0.67 0.67 67 1015.2
20260831223506 80 107 3.0 8.0 0.00 0.67 0.67 68 1015.4
20260831223008 80 89 2.0 6.0 0.00 0.67 0.67 70 1015.4
20260831222506 79 77 1.0 6.0 0.00 0.67 0.67 71 1015.5
20260831222004 79 82 0.0 6.0 0.00 0.67 0.67 72 1015.4
20260831221526 80 80 2.0 5.0 0.00 0.67 0.67 73 1015.6
20260831221004 80 66 0.0 5.0 0.00 0.67 0.67 75 1015.9
20260831220507 79 65 0.0 5.0 0.00 0.67 0.67 75 1015.9
20260831220035 78 69 1.0 5.0 0.00 0.67 0.67 76 1016.1
20260831215504 78 72 0.0 5.0 0.01 0.67 0.67 78 1016.3
20260831215005 77 70 1.0 6.0 0.01 0.67 0.67 81 1016.3
20260831214532 75 360 2.0 6.0 0.01 0.67 0.67 89 1016.4
20260831214004 74 105 2.0 6.0 0.01 0.67 0.67 92 1016.4
20260831213504 73 10 1.0 3.0 0.02 0.67 0.67 94 1016.6
20260831213010 72 360 0.0 6.0 0.02 0.67 0.67 94 1016.7
20260831212506 71 360 2.0 6.0 0.03 0.67 0.67 94 1016.8
20260831212005 70 360 0.0 4.0 0.04 0.67 0.67 94 1017.0
20260831211513 70 360 1.0 6.0 0.05 0.67 0.67 94 1017.1
20260831211003 70 360 1.0 6.0 0.05 0.67 0.67 94 1017.2
20260831210503 70 360 1.0 6.0 0.05 0.67 0.67 94 1017.4
20260831210011 70 360 1.0 10.0 0.06 0.67 0.67 94 1017.6
20260831205507 70 360 3.0 10.0 0.05 0.66 0.66 94 1017.6